This is the latest recevied weather packets stored in our database for station/object CRYC. If no packets are shown the sender has not sent any weather packets the latest 10 day(s).
| Time | Temp. | Humidity | Pressure | Rain* | Wind** | Luminosity | Snow |
|---|---|---|---|---|---|---|---|
| 1777801419 | 6.67° C | - | - | 0 mm | 2.24 m/s, 302° | - | - |
| 1777800812 | 6.11° C | - | - | 0 mm | 0 m/s | - | - |
| 1777800207 | 6.67° C | - | - | 0 mm | 2.68 m/s, 328° | - | - |
| 1777799603 | 6.67° C | - | - | 0 mm | 0.89 m/s, 326° | - | - |
| 1777799005 | 6.11° C | - | - | 0 mm | 1.34 m/s, 359° | - | - |
| 1777797791 | 6.67° C | - | - | 0 mm | 1.79 m/s, 356° | - | - |
| 1777797178 | 6.67° C | - | - | 0 mm | 2.24 m/s, 346° | - | - |
| 1777796570 | 6.67° C | - | - | 0 mm | 1.34 m/s, 315° | - | - |
| 1777795964 | 7.22° C | - | - | 0 mm | 1.34 m/s, 359° | - | - |
| 1777795358 | 6.67° C | - | - | 0 mm | 0.89 m/s, 270° | - | - |
| 1777794753 | 7.22° C | - | - | 0 mm | 0.89 m/s, 69° | - | - |
| 1777794147 | 7.22° C | - | - | 0 mm | 1.34 m/s, 321° | - | - |
| 1777793540 | 7.22° C | - | - | 0 mm | 1.79 m/s, 359° | - | - |
| 1777792936 | 7.78° C | - | - | 0 mm | 0.45 m/s, 357° | - | - |
| 1777792330 | 7.78° C | - | - | 0 mm | 1.34 m/s, 346° | - | - |
| 1777791726 | 7.78° C | - | - | 0 mm | 1.79 m/s, 338° | - | - |
| 1777791118 | 7.78° C | - | - | 0 mm | 1.34 m/s, 335° | - | - |
| 1777790511 | 7.78° C | - | - | 0 mm | 2.24 m/s, 329° | - | - |
| 1777789905 | 7.78° C | - | - | 0 mm | 0.89 m/s, 13° | - | - |
| 1777789299 | 7.78° C | - | - | 0 mm | 0.45 m/s, 15° | - | - |
| 1777788694 | 7.78° C | - | - | 0 mm | 1.34 m/s, 316° | - | - |
| 1777788086 | 7.78° C | - | - | 0 mm | 0.89 m/s, 20° | - | - |
| 1777787482 | 7.78° C | - | - | 0 mm | 0 m/s | - | - |
| 1777786874 | 7.78° C | - | - | 0 mm | 0 m/s | - | - |
| 1777786269 | 8.33° C | - | - | 0 mm | 0.45 m/s, 17° | - | - |
* Rain latest hour (hover to see other rain measurements)
** Current wind speed in m/s (hover to see current wind gust speed)